[[{"header":{"parameterUnit":"m.s-1","parameterCategory":1,"la1":30.2991,"la2":30.254,"lo1":-89.0895,"lo2":-89.0444,"dy":0.0017,"dx":0.0017,"nx":28,"ny":28,"refTime":"2025-06-02T21:00:00:Z","depth":0,"parameterNumber":2,"parameterNumberName":"U-component_of_WINDS"},"data":[0,0,0,0,0,0,0,0,0,0,0,0,0,0,0,0,0,0,0,0,0,0,0,0,0,0,0,0,0,0,0,0,0,0,0,0,0,0,0,0,0,0,0,0,0,0,0,0,0,0,0,0,0,0,0,0,0,0,-1.5651,-1.5652,0,-1.5672,-1.5673,-1.5673,-1.5635,-1.5634,-1.5633,-1.5632,-1.5653,-1.5655,-1.5657,0,0,0,0,0,0,0,0,0,0,0,0,0,-1.5578,-1.558,-1.5651,-1.5652,-1.5652,-1.5672,-1.5673,-1.5673,-1.5636,-1.5634,-1.5632,-1.5631,-1.5653,-1.5655,-1.5657,0,0,0,0,0,0,0,0,0,0,0,0,0,-1.5606,-1.5581,-1.5651,-1.5636,-1.5634,-1.5672,-1.5673,-1.5673,-1.5636,-1.5634,-1.5632,-1.563,-1.5652,-1.5655,-1.5657,-1.5712,0,0,-1.5665,-1.5667,0,0,0,0,0,0,0,0,-1.5604,-1.5609,-1.5638,-1.5637,-1.5635,-1.5649,-1.5655,-1.5686,-1.5636,-1.5635,-1.5632,-1.5629,-1.5654,-1.5656,-1.5664,-1.5713,-1.5713,-1.5666,-1.5667,-1.5668,-1.5669,0,0,0,0,0,0,0,-1.5603,-1.5608,-1.566,-1.5638,-1.5637,-1.5628,-1.5629,-1.5661,-1.5655,-1.5635,-1.5633,-1.5636,-1.5653,-1.5662,-1.5664,-1.5714,-1.5666,-1.5668,-1.567,-1.5671,-1.5807,-1.5809,0,0,0,0,0,0,-1.5603,-1.5606,-1.5659,-1.566,-1.5615,-1.563,-1.5632,-1.5647,-1.5654,-1.5654,-1.5637,-1.5634,-1.5658,-1.5661,-1.5665,-1.5729,-1.5668,-1.5671,-1.5672,-1.5805,-1.5808,-1.581,0,0,0,0,0,0,-1.5601,-1.5608,-1.5658,-1.5633,-1.5638,-1.5634,-1.565,-1.5648,-1.5657,-1.5656,-1.5655,-1.5647,-1.5657,-1.5661,-1.57,-1.5729,-1.5672,-1.5674,-1.5803,-1.5806,-1.5809,-1.5856,0,0,0,0,0,0,-1.5599,-1.5607,-1.5628,-1.5633,-1.564,-1.5693,-1.5652,-1.565,-1.5662,-1.5657,-1.5665,-1.5665,-1.5656,-1.5696,-1.5703,-1.5731,-1.5676,-1.58,-1.5804,-1.5808,-1.5852,-1.5861,-1.5868,0,0,0,0,0,-1.5597,-1.5641,-1.5629,-1.5636,-1.5665,-1.5695,-1.5698,-1.5687,-1.5664,-1.5685,-1.5684,-1.5664,-1.5725,-1.5701,-1.5708,-1.5737,-1.5798,-1.5803,-1.5808,-1.5849,-1.5859,-1.5868,0,0,0,0,0,0,-1.5639,-1.5641,-1.5628,-1.5675,-1.5685,-1.5688,-1.5714,-1.5699,-1.5715,-1.571,-1.5696,-1.5698,-1.574,-1.5742,-1.5716,-1.579,-1.5758,-1.5764,-1.5787,-1.5796,-1.5804,-1.5803,-1.5679,0,0,0,0,0,-1.5654,-1.5678,-1.5678,-1.5719,-1.5725,-1.5719,-1.5731,-1.5722,-1.5731,-1.5735,-1.5737,-1.5747,-1.5768,-1.5783,-1.5802,-1.5853,-1.5854,-1.5876,-1.5884,-1.5891,-1.5896,-1.5923,-1.5933,-1.5825,-1.5825,-1.5825,0,0,-1.5685,-1.5689,-1.5705,-1.5728,-1.5734,-1.5759,-1.5723,-1.575,-1.5769,-1.5739,-1.5776,-1.5778,-1.5788,-1.5833,-1.5853,-1.5837,-1.5926,-1.5897,-1.5902,-1.5904,-1.5929,-1.5939,-1.5948,-1.5828,-1.5828,-1.5827,0,0,-1.5753,-1.5759,-1.5794,-1.5801,-1.5811,-1.5807,-1.5815,-1.5821,-1.5821,-1.5857,-1.5836,-1.5857,-1.5894,-1.5902,-1.5911,-1.5983,-1.5965,-1.5989,-1.603,-1.6057,-1.6065,-1.6072,-1.6098,-1.6107,-1.5995,-1.5995,-1.5995,0,-1.5791,-1.5827,-1.5814,-1.5843,-1.5854,-1.5828,-1.5863,-1.5871,-1.5887,-1.5895,-1.5877,-1.5922,-1.5927,-1.5974,-1.5991,-1.5999,-1.6008,-1.5988,-1.6065,-1.6072,-1.6079,-1.6103,-1.6112,-1.5998,-1.5998,-1.5997,-1.5997,0,-1.5872,-1.5897,-1.5924,-1.594,-1.5954,-1.5986,-1.5978,-1.5994,-1.5983,-1.598,-1.6018,-1.6023,-1.6043,-1.6053,-1.6043,-1.6098,-1.6087,-1.6067,-1.6034,-1.6092,-1.6115,-1.6124,-1.6002,-1.6001,-1.6,-1.5999,0,0,-1.5968,-1.5976,-1.5986,-1.5993,-1.6002,-1.6022,-1.6052,-1.6072,-1.6085,-1.6097,-1.6123,-1.6154,-1.6135,-1.6146,-1.6136,-1.6159,-1.6215,-1.6136,-1.6136,-1.615,-1.6276,-1.6291,-1.6301,-1.6203,-1.6205,-1.6207,-1.6275,0,-1.6036,-1.6089,-1.6078,-1.613,-1.6153,-1.6129,-1.6156,-1.6165,-1.6163,-1.6183,-1.6181,-1.6203,-1.6177,-1.6183,-1.6205,-1.6204,-1.624,-1.6199,-1.6227,-1.6228,-1.6225,-1.6313,-1.6329,-1.6393,-1.6283,-1.6285,-1.6286,0,-1.6123,-1.6138,-1.6192,-1.6197,-1.6206,-1.6231,-1.6247,-1.6266,-1.6275,-1.6272,-1.6284,-1.627,-1.63,-1.6267,-1.6309,-1.6281,-1.6292,-1.6293,-1.6295,-1.6297,-1.626,-1.6317,-1.6413,-1.6423,-1.6299,-1.6298,-1.6297,0,-1.6187,-1.6221,-1.6258,-1.6264,-1.6271,-1.6289,-1.6292,-1.6299,-1.6312,-1.6326,-1.6334,-1.6352,-1.6362,-1.6376,-1.6367,-1.6344,-1.641,-1.6376,-1.6408,-1.6409,-1.6423,-1.6423,-1.6522,-1.6431,-1.6431,-1.6431,-1.643,0,-1.6265,-1.6299,-1.6287,-1.6309,-1.6347,-1.6333,-1.6371,-1.6372,-1.6378,-1.64,-1.6381,-1.6402,-1.6389,-1.6409,-1.6403,-1.6438,-1.6443,-1.6441,-1.6439,-1.6443,-1.6443,-1.645,-1.6445,-1.6433,-1.6432,-1.6432,-1.6432,0,-1.6343,-1.6336,-1.6375,-1.6378,-1.6379,-1.6407,-1.6409,-1.643,-1.6427,-1.6456,-1.6461,-1.6456,-1.6479,-1.6472,-1.6496,-1.6492,-1.6537,-1.6529,-1.6534,-1.6531,-1.6564,-1.6561,-1.6671,-1.6685,-1.6585,-1.6586,-1.6587,0,-1.6393,-1.6418,-1.6424,-1.6437,-1.6442,-1.6464,-1.6476,-1.6464,-1.6478,-1.649,-1.6509,-1.653,-1.6546,-1.6584,-1.6583,-1.6601,-1.6593,-1.6631,-1.6596,-1.6599,-1.6594,-1.6592,-1.6595,-1.6638,-1.6639,-1.664,-1.6641,0,-1.6482,-1.6477,-1.6495,-1.6512,-1.6527,-1.654,-1.6551,-1.6563,-1.6552,-1.6568,-1.6591,-1.6603,-1.6628,-1.6649,-1.6666,-1.667,-1.6653,-1.6651,-1.666,-1.6664,-1.6666,-1.6665,-1.6552,-1.6649,-1.6648,-1.6648,-1.6647,-1.6647,-1.6547,-1.6569,-1.6576,-1.6597,-1.6604,-1.6614,-1.6634,-1.6633,-1.6652,-1.6671,-1.6663,-1.6689,-1.6697,-1.6718,-1.6724,-1.6744,-1.673,-1.6742,-1.6745,-1.6748,-1.6752,-1.6663,-1.6747,-1.6747,-1.6747,-1.6746,-1.6746,0,-1.6635,-1.6638,-1.6657,-1.6673,-1.669,-1.6673,-1.6684,-1.6699,-1.6722,-1.6731,-1.6747,-1.6773,-1.6793,-1.6793,-1.6812,-1.6828,-1.6821,-1.6834,-1.6832,-1.6833,-1.6764,-1.6755,-1.6839,-1.6839,-1.6839,-1.6839,-1.6839,-1.6839,-1.6682,-1.6718,-1.6714,-1.6752,-1.6755,-1.6781,-1.6789,-1.6798,-1.6805,-1.6835,-1.6852,-1.6851,-1.6857,-1.6875,-1.6893,-1.6893,-1.69,-1.6916,-1.6912,-1.6848,-1.6838,-1.683,-1.6821,-1.6917,-1.6917,-1.698,-1.698,-1.6981]},{"header":{"parameterUnit":"m.s-1","parameterCategory":1,"la1":30.2991,"la2":30.254,"lo1":-89.0895,"lo2":-89.0444,"dy":0.0017,"dx":0.0017,"nx":28,"ny":28,"refTime":"2025-06-02T21:00:00:Z","depth":0,"parameterNumber":3,"parameterNumberName":"V-component_of_WINDS"},"data":[0,0,0,0,0,0,0,0,0,0,0,0,0,0,0,0,0,0,0,0,0,0,0,0,0,0,0,0,0,0,0,0,0,0,0,0,0,0,0,0,0,0,0,0,0,0,0,0,0,0,0,0,0,0,0,0,0,0,2.0829,2.0828,0,2.0782,2.0781,2.0781,2.0719,2.0718,2.0717,2.0716,2.0668,2.0668,2.0668,0,0,0,0,0,0,0,0,0,0,0,0,0,2.0864,2.0864,2.0829,2.0828,2.0828,2.0782,2.0781,2.0781,2.0719,2.0718,2.0717,2.0715,2.0668,2.0668,2.0668,0,0,0,0,0,0,0,0,0,0,0,0,0,2.0836,2.0864,2.0829,2.0791,2.0787,2.0782,2.0781,2.078,2.0719,2.0718,2.0716,2.0715,2.0668,2.0668,2.0667,2.0695,0,0,2.0666,2.0666,0,0,0,0,0,0,0,0,2.0838,2.0835,2.0797,2.0794,2.079,2.0755,2.0776,2.0752,2.072,2.0745,2.0716,2.0714,2.0698,2.0695,2.069,2.0693,2.0691,2.0666,2.0666,2.0665,2.0665,0,0,0,0,0,0,0,2.084,2.0837,2.081,2.0797,2.0792,2.0777,2.0771,2.0771,2.0731,2.0743,2.0738,2.0734,2.0696,2.069,2.0688,2.069,2.0666,2.0666,2.0665,2.0665,2.0712,2.0713,0,0,0,0,0,0,2.0848,2.0839,2.0812,2.0809,2.0811,2.0777,2.0771,2.0767,2.0731,2.0724,2.0735,2.0731,2.0692,2.0689,2.0686,2.0715,2.0665,2.0665,2.0665,2.071,2.0712,2.0714,0,0,0,0,0,0,2.0849,2.0846,2.0814,2.0823,2.0817,2.0778,2.0775,2.0767,2.0762,2.0725,2.0717,2.0737,2.0691,2.0687,2.0693,2.0712,2.0665,2.0664,2.0709,2.0711,2.0713,2.0773,0,0,0,0,0,0,2.085,2.0847,2.0857,2.0823,2.0817,2.0821,2.0776,2.0767,2.0761,2.0755,2.0724,2.0718,2.0689,2.0694,2.0693,2.0711,2.0664,2.0707,2.071,2.0712,2.0769,2.0777,2.0784,0,0,0,0,0,2.0851,2.0876,2.0858,2.0855,2.0829,2.0823,2.0819,2.0785,2.0763,2.0773,2.0749,2.0719,2.0711,2.0695,2.0693,2.0711,2.0705,2.0709,2.0712,2.0766,2.0776,2.0784,0,0,0,0,0,0,2.0913,2.0871,2.085,2.0865,2.0848,2.0812,2.0823,2.0797,2.0786,2.0781,2.074,2.0733,2.0744,2.0729,2.0712,2.0735,2.0703,2.0707,2.0745,2.0754,2.0761,2.0764,2.0664,0,0,0,0,0,2.0929,2.0927,2.089,2.0906,2.0899,2.0863,2.0859,2.0834,2.0815,2.0808,2.0784,2.0767,2.076,2.0756,2.0748,2.0767,2.0759,2.0779,2.0786,2.0792,2.0795,2.0802,2.081,2.0725,2.0725,2.0725,0,0,2.096,2.0937,2.0938,2.0918,2.0902,2.0901,2.0857,2.0858,2.0857,2.0808,2.0811,2.0794,2.0771,2.0784,2.0788,2.0771,2.0817,2.0797,2.0802,2.0801,2.0807,2.0815,2.0822,2.0727,2.0727,2.0727,0,0,2.1017,2.1,2.101,2.0995,2.0971,2.0947,2.095,2.0918,2.0904,2.0907,2.087,2.0868,2.0858,2.0843,2.0834,2.0884,2.0856,2.0883,2.0921,2.0929,2.0935,2.0941,2.0957,2.0964,2.0886,2.0886,2.0886,0,2.1059,2.1056,2.102,2.1022,2.1014,2.097,2.098,2.0967,2.0942,2.0937,2.0918,2.0903,2.0885,2.0893,2.0905,2.09,2.0901,2.0886,2.0937,2.0943,2.0947,2.0962,2.0969,2.0889,2.0889,2.0889,2.0888,0,2.1108,2.1106,2.1118,2.1094,2.1088,2.1095,2.1059,2.1056,2.1032,2.101,2.1013,2.099,2.0976,2.0976,2.0953,2.0979,2.0969,2.0945,2.0912,2.0959,2.0973,2.0978,2.0894,2.0893,2.0892,2.0891,0,0,2.1202,2.1158,2.1162,2.115,2.1121,2.1119,2.1123,2.1109,2.1107,2.1091,2.1093,2.1085,2.1061,2.1051,2.1026,2.1033,2.1072,2.1007,2.1006,2.1019,2.1099,2.1116,2.1124,2.1054,2.1055,2.1056,2.11,0,2.1252,2.1257,2.1224,2.1237,2.1235,2.1192,2.1196,2.1178,2.1157,2.1151,2.1128,2.1122,2.1093,2.1086,2.1091,2.1067,2.1088,2.1063,2.1054,2.1054,2.106,2.1131,2.115,2.1193,2.1105,2.1106,2.1107,0,2.131,2.1297,2.131,2.1279,2.1276,2.128,2.1264,2.126,2.1238,2.1222,2.1211,2.1181,2.1183,2.1152,2.1153,2.1137,2.1131,2.1119,2.1119,2.1116,2.1083,2.1129,2.1206,2.1212,2.1115,2.1114,2.1114,0,2.1376,2.1361,2.1367,2.1358,2.1322,2.1326,2.1311,2.1287,2.1281,2.1266,2.1261,2.1248,2.124,2.123,2.1197,2.1178,2.1201,2.1168,2.1187,2.1188,2.1193,2.1193,2.127,2.1192,2.1192,2.1192,2.1192,0,2.1434,2.1443,2.1395,2.1399,2.1408,2.137,2.138,2.1361,2.134,2.1339,2.1302,2.1301,2.1259,2.1253,2.1228,2.1231,2.1228,2.1215,2.1208,2.1218,2.1219,2.1212,2.1208,2.1194,2.1193,2.1193,2.1193,0,2.1508,2.1477,2.148,2.1445,2.1436,2.1444,2.1414,2.1416,2.1392,2.1391,2.1388,2.1352,2.1343,2.131,2.1293,2.1276,2.1287,2.1274,2.1294,2.129,2.131,2.1308,2.1384,2.1391,2.1311,2.1312,2.1312,0,2.1547,2.1553,2.1519,2.1515,2.1501,2.1496,2.1488,2.1452,2.1445,2.142,2.1425,2.1413,2.1401,2.1389,2.1361,2.1347,2.1333,2.1361,2.1331,2.134,2.1332,2.1331,2.1331,2.1367,2.1368,2.1369,2.137,0,2.1618,2.1602,2.1593,2.1578,2.157,2.1557,2.1542,2.1541,2.1499,2.1494,2.1484,2.1476,2.1458,2.1446,2.1428,2.1412,2.1384,2.1379,2.1383,2.1392,2.1403,2.1396,2.131,2.1377,2.1377,2.1376,2.1376,2.1375,2.1675,2.1677,2.1654,2.1644,2.1629,2.1615,2.1614,2.159,2.1582,2.1565,2.1543,2.1536,2.1513,2.1486,2.1472,2.1465,2.1449,2.1455,2.1456,2.1458,2.1462,2.1405,2.1462,2.1462,2.1461,2.1461,2.1461,0,2.1743,2.1725,2.1717,2.1696,2.1689,2.1663,2.1644,2.1639,2.1634,2.1615,2.1604,2.1592,2.1581,2.1551,2.1536,2.1537,2.1523,2.1534,2.1533,2.1529,2.1477,2.1475,2.1545,2.1545,2.1545,2.1545,2.1545,2.1545,2.1777,2.178,2.1762,2.1756,2.1738,2.1731,2.1722,2.1709,2.1693,2.1682,2.1672,2.1653,2.1629,2.1612,2.16,2.1592,2.1587,2.1602,2.1589,2.1541,2.1533,2.1525,2.1523,2.1602,2.1602,2.1641,2.1642,2.1642]}]]